PLATFORM,ARGOS_ID,DATE (YYYY/MM/DD HH:MI:SS),LATITUDE (degree_north),LONGITUDE (degree_east),TEMP LEVEL0 (degree_Celsius),EWCT LEVEL1 (meter/second),NSCT LEVEL1 (meter/second),QC,SVP_RCBN_Number,SVP_GNRL_ImmPercent,SVP_GNRL_BattVolt
IF000192,66568,2006/09/07 07:04:15,48.3594,-4.5593,19,,,00144499,7,0,12.5
IF000192,66568,2006/09/07 08:00:11,48.3593,-4.5593,20.2,0,-0.003313,00144400,6,0,12.6
IF000192,66568,2006/09/07 09:00:40,48.3594,-4.5593,22.04,0,0.003064,00144400,5,0,12.6
IF000192,66568,2006/09/07 10:00:16,48.3593,-4.5593,26.68,0,-0.003109,00144400,7,0,12.6
IF000192,66568,2006/09/07 11:00:40,48.3592,-4.5591,27.88,0.004078,-0.003068,00144400,7,0,12.6
IF000192,66568,2006/09/07 12:00:13,48.3594,-4.5592,32.2,-0.002068,0.006224,00144400,1,0,12.6
IF000192,66568,2006/09/07 13:00:16,48.3593,-4.5590,34.52,0.004101,-0.003086,00144400,6,0,12.6
IF000192,66568,2006/09/07 14:00:35,48.3593,-4.5592,34.12,-0.004083,0,00144400,4,0,12.6
IF000192,66568,2006/09/07 15:00:40,48.3593,-4.5593,34.6,-0.002049,0,00144400,5,0,12.6
IF000192,66568,2006/09/07 16:00:11,48.3592,-4.5592,35.88,0.002069,-0.003114,00144400,4,0,12.6
IF000192,66568,2006/09/07 17:00:16,48.3594,-4.5593,35.88,-0.002049,0.006169,00144400,4,0,12.6
IF000192,66568,2006/09/07 18:00:40,48.3593,-4.5592,32.6,0.002039,-0.003068,00144400,3,0,12.6
IF000192,66568,2006/09/07 19:00:16,48.3595,-4.5594,22.12,-0.004132,0.006219,00144400,1,0,12.6
IF000192,66568,2006/09/07 20:00:29,48.3593,-4.5591,19,0.006135,-0.006155,00144400,1,0,12.6
IF000192,66568,2006/09/07 21:00:40,48.3594,-4.5593,17.8,-0.004092,0.003079,00144400,4,0,12.6
IF000192,66568,2006/09/07 22:00:16,48.3593,-4.5593,17.16,0,-0.003109,00144400,4,0,12.6
IF000192,66568,2006/09/07 23:00:16,48.3593,-4.5591,16.76,0.004105,0,00144400,5,0,12.6
IF000192,66568,2006/09/08 00:00:40,48.3593,-4.5592,16.2,-0.002039,0,00144400,3,0,12.6
IF000192,66568,2006/09/08 01:00:16,48.3594,-4.5593,15.64,-0.002066,0.003109,00144400,1,0,12.6
IF000192,66568,2006/09/08 02:00:16,48.3595,-4.5591,15.16,0.004105,0.003089,00144400,1,0,12.6
IF000192,66568,2006/09/08 03:00:39,48.3593,-4.5593,15.08,-0.004079,-0.006138,00144400,5,0,12.6
IF000192,66568,2006/09/08 04:00:12,48.3594,-4.5594,14.92,-0.002068,0.003112,00144400,5,0,12.6
IF000192,66568,2006/09/08 05:00:16,48.3593,-4.5594,14.28,0,-0.003085,00144400,6,0,12.6
IF000192,66568,2006/09/08 06:00:40,48.3594,-4.5594,13.64,0,0.003068,00144400,1,0,12.5
IF000192,66568,2006/09/08 07:00:40,48.3592,-4.5591,14.44,0.006157,-0.006177,00144400,1,0,12.6
IF000192,66568,2006/09/08 08:00:52,48.3590,-4.5588,19.08,0.006137,-0.006157,00144400,5,0,12.6
IF000192,66568,2006/09/08 09:00:40,48.3593,-4.5592,24.04,-0.008237,0.009297,00144400,5,0,12.6
IF000192,66568,2006/09/08 10:00:16,48.3594,-4.5593,27.08,-0.002066,0.003109,00144400,6,0,12.6
IF000192,66568,2006/09/08 11:01:04,48.3593,-4.5592,31.16,0.002025,-0.003048,00144400,11,0,12.6
IF000192,66568,2006/09/08 12:00:17,48.3594,-4.5591,35.8,0.002079,0.00313,00144400,3,0,12.6
IF000192,66568,2006/09/08 13:00:16,48.3593,-4.5592,35.88,-0.002053,-0.00309,00144400,3,0,12.6
IF000192,66568,2006/09/08 14:00:35,48.3593,-4.5592,35.88,0,0,00144400,3,0,12.6
IF000192,66568,2006/09/08 15:00:40,48.3593,-4.5594,35.88,-0.004099,0,00144400,1,0,12.6
IF000192,66568,2006/09/08 16:00:11,48.3594,-4.5593,35.88,0.002069,0.003114,00144400,1,0,12.6
IF000192,66568,2006/09/08 17:00:16,48.3594,-4.5592,35.88,0.002049,0,00144400,1,0,12.6
IF000192,66568,2006/09/08 18:00:39,48.3593,-4.5593,33.8,-0.002039,-0.003069,00144400,1,0,12.6
IF000192,66568,2006/09/08 19:00:23,48.3594,-4.5594,25.4,-0.002062,0.003103,00144400,3,0,12.6
IF000192,66568,2006/09/08 20:01:10,48.3594,-4.5593,22.04,0.002026,0,00144400,1,0,12.6
IF000192,66568,2006/09/08 21:00:16,48.3594,-4.5594,20.6,-0.002084,0,00144400,1,0,12.6
IF000192,66568,2006/09/08 22:00:15,48.3593,-4.5591,19.4,0.006159,-0.00309,00144400,3,0,12.6
IF000192,66568,2006/09/08 23:00:41,48.3593,-4.5592,18.52,-0.002038,0,00144400,3,0,12.6
IF000192,66568,2006/09/09 00:00:16,48.3593,-4.5594,17.72,-0.004133,0,00144400,3,0,12.6
IF000192,66568,2006/09/09 01:00:40,48.3594,-4.5592,17.08,0.004077,0.003068,00144400,3,0,12.6
IF000192,66568,2006/09/09 02:00:40,48.3594,-4.5593,16.6,-0.002052,0,00144400,1,0,12.6
IF000192,66568,2006/09/09 03:00:07,48.3594,-4.5592,16.28,0.002071,0,00144400,3,0,12.6
IF000192,66568,2006/09/09 04:00:11,48.3596,-4.5595,16.44,-0.00615,0.006171,00144400,1,0,12.6
IF000192,66568,2006/09/09 05:00:40,48.3593,-4.5593,16.6,0.004072,-0.009192,00144400,4,0,12.5
IF000192,66568,2006/09/09 06:00:16,48.3593,-4.5592,16.44,0.002066,0,00144400,4,0,12.6
IF000192,66568,2006/09/09 07:00:16,48.3593,-4.5592,16.2,0,0,00144400,8,0,12.6
IF000192,66568,2006/09/09 08:00:40,48.3593,-4.5592,20.6,0,0,00144400,5,0,12.6
IF000192,66568,2006/09/09 09:00:16,48.3593,-4.5593,27.4,-0.002066,0,00144400,4,0,12.6
IF000192,66568,2006/09/09 10:00:11,48.3593,-4.5593,28.52,0,0,00144400,3,0,12.6
IF000192,66568,2006/09/09 11:00:40,48.3594,-4.5592,33.72,0.002036,0.003064,00144400,1,0,12.6
IF000192,66568,2006/09/09 12:00:12,48.3594,-4.5592,35.88,0,0,00144400,5,0,12.6
IF000192,66568,2006/09/09 13:00:16,48.3593,-4.5592,35.88,0,-0.003085,00144400,1,0,12.6
IF000192,66568,2006/09/09 14:00:53,48.3593,-4.5591,35.88,0.002031,0,00144400,4,0,12.6
IF000192,66568,2006/09/09 15:00:40,48.3594,-4.5593,35.88,-0.00412,0.0031,00144400,4,0,12.6
IF000192,66568,2006/09/09 16:00:16,48.3593,-4.5592,35.88,0.002066,-0.003109,00144400,4,0,12.6
IF000192,66568,2006/09/09 17:00:40,48.3590,-4.5591,33.24,0.002039,-0.009205,00144400,1,0,12.6
IF000192,66568,2006/09/09 18:00:39,48.3593,-4.5593,33.24,-0.004106,0.009269,00144400,5,0,12.6
IF000192,66568,2006/09/09 19:00:16,48.3593,-4.5593,25.48,0,0,00144400,3,0,12.6
IF000192,66568,2006/09/09 20:01:10,48.3592,-4.5591,22.68,0.004044,-0.003043,00144400,1,0,12.6
IF000192,66568,2006/09/09 21:00:11,48.3594,-4.5597,21.4,-0.012519,0.00628,00144400,1,0,12.6
IF000192,66568,2006/09/09 22:00:40,48.3593,-4.5593,19.48,0.008144,-0.003064,00144400,3,0,12.6
IF000192,66568,2006/09/09 23:00:16,48.3593,-4.5594,18.12,-0.002066,0,00144400,4,0,12.6
IF000192,66568,2006/09/10 00:00:16,48.3594,-4.5593,17.64,0.002052,0.003089,00144400,4,0,12.6
IF000192,66568,2006/09/10 01:00:40,48.3593,-4.5593,17.4,0,-0.003068,00144400,1,0,12.6
IF000192,66568,2006/09/10 02:00:22,48.3594,-4.5593,16.92,0,0.003104,00144400,3,0,12.6
IF000192,66568,2006/09/10 03:00:40,48.3593,-4.5592,16.52,0.002042,-0.003073,00144400,1,0,12.6
IF000192,66568,2006/09/10 04:00:16,48.3593,-4.5593,17,-0.002066,0,00144400,8,0,12.5
IF000192,66568,2006/09/10 05:00:16,48.3594,-4.5592,17.32,0.002052,0.003089,00144400,1,0,12.5
IF000192,66568,2006/09/10 06:00:40,48.3594,-4.5594,17,-0.004077,0,00144400,5,0,12.5
IF000192,66568,2006/09/10 07:00:15,48.3590,-4.5586,18.04,0.016534,-0.012441,00144400,3,0,12.5
IF000192,66568,2006/09/10 08:00:40,48.3591,-4.5591,19.08,-0.010191,0.003067,00144400,4,0,12.5
IF000192,66568,2006/09/10 09:00:17,48.3593,-4.5592,20.68,-0.002066,0.006217,00144400,4,0,12.5
IF000192,66568,2006/09/10 10:00:40,48.3593,-4.5591,26.04,0.002039,0,00144400,3,0,12.5
IF000192,66568,2006/09/10 11:00:35,48.3593,-4.5592,30.84,-0.002055,0,00144400,3,0,12.5
IF000192,66568,2006/09/10 12:00:12,48.3592,-4.5593,34.36,-0.002066,-0.003109,00144400,3,0,12.5
IF000192,66568,2006/09/10 13:00:16,48.3593,-4.5594,35.88,-0.00205,0.003085,00144400,1,0,12.5
IF000192,66568,2006/09/10 14:00:00,48.3453,-4.4351,31.32,2.56363,-0.434355,00144400,1,0,12.5
IF000192,66568,2006/09/10 15:00:00,48.0116,-3.6972,29.32,15.1961,-10.3081,00144400,1,0,12.5
IF000192,66568,2006/09/10 16:00:00,47.5762,-2.7773,29.56,19.0898,-13.4472,00144400,1,0,12.5
IF000192,66568,2006/09/10 20:00:00,47.0100,-2.3142,28.6,2.42531,-4.37189,00144400,1,0,12.5
IF000192,66568,2006/09/10 21:00:00,46.8685,-2.1984,27.88,2.44149,-4.37212,00144400,1,0,12.5
IF000192,66568,2006/09/10 22:04:09,44.8677,-1.0904,26.28,32.0458,-82.8463,00144400,1,0,12.5
IF000192,66568,2006/09/11 00:00:00,46.4439,-1.8511,24.2,-12.1826,35.9984,00144400,1,0,12.5
IF000192,66568,2006/09/11 04:01:12,44.8671,-1.0897,22.52,4.08911,-12.115,00144400,1,0,12.5
IF000192,66568,2006/09/11 05:00:00,45.7361,-1.2722,22.12,-5.76006,38.8566,00144400,3,0,12.5
IF000192,66568,2006/09/11 06:00:00,45.5946,-1.1565,21.8,2.49897,-4.37181,00144400,3,0,12.5
IF000192,66568,2006/09/11 07:00:00,45.4531,-1.0407,21.56,2.50528,-4.37181,00144400,3,0,12.5
IF000192,66568,2006/09/11 09:00:00,45.1700,-0.8092,23.56,2.51472,-4.37197,00144400,4,0,12.5
IF000192,66568,2006/09/11 10:02:33,44.8594,-0.5536,29.16,5.35291,-9.20165,00144400,6,0,12.5
IF000192,66568,2006/09/11 11:00:38,44.8644,-0.5434,32.68,0.230681,0.159534,00144400,6,0,12.5
IF000192,66568,2006/09/11 12:00:11,45.0646,-0.6403,34.76,-2.13368,6.2304,00144400,5,0,12.5
IF000192,66568,2006/09/11 13:00:17,45.2964,-0.7645,32.28,-2.69956,7.1478,00144400,5,0,12.5
IF000192,66568,2006/09/11 14:00:41,45.4772,-0.9317,35.88,-3.60302,5.54747,00144400,4,0,12.5
IF000192,66568,2006/09/11 15:00:17,45.6007,-1.0659,32.84,-2.92281,3.8402,00144400,5,0,12.5
IF000192,66568,2006/09/11 16:00:21,45.6560,-1.2455,26.6,-3.87504,1.70618,00144400,5,0,12.5
IF000192,66568,2006/09/11 17:00:41,45.6609,-1.4817,24.76,-5.07099,0.150512,00144400,4,0,12.5
IF000192,66568,2006/09/11 18:00:17,45.6972,-1.7398,24.04,-5.60727,1.12874,00144400,1,0,12.5
IF000192,66568,2006/09/11 19:00:26,45.7376,-2.0015,22.12,-5.62964,1.24474,00144400,1,0,12.5
IF000192,66568,2006/09/11 20:00:41,45.7946,-2.2640,20.84,-5.63256,1.75328,00144400,1,0,12.5
IF000192,66568,2006/09/11 21:00:17,45.8424,-2.5228,20.68,-5.60845,1.48633,00144400,3,0,12.5
IF000192,66568,2006/09/11 22:00:29,46.0078,-2.6105,20.68,-1.878,5.09182,00144400,5,0,12.5
IF000192,66568,2006/09/11 23:01:06,46.1701,-2.7078,20.28,-2.06313,4.96204,00144400,4,0,12.5
IF000192,66568,2006/09/12 00:00:40,46.3478,-2.7897,19.72,-1.76175,5.52863,00144400,5,0,12.5
IF000192,66568,2006/09/12 01:00:10,46.5421,-2.8301,19.8,-0.867061,6.05187,00144400,8,0,12.5
IF000192,66568,2006/09/12 02:00:40,46.7385,-2.8331,20.04,-0.063094,6.01617,00144400,6,0,12.4
IF000192,66568,2006/09/12 03:00:10,46.7558,-2.8245,19.88,0.183546,0.538844,00111100,5,0,12.5
IF000192,66568,2006/09/12 04:00:16,46.7601,-2.8124,19.88,0.255615,0.132595,00111100,7,1,12.5
IF000192,66568,2006/09/12 05:00:16,46.7611,-2.8036,19.88,0.186203,0.030887,00111100,6,1,12.5
IF000192,66568,2006/09/12 06:01:04,46.7590,-2.7980,19.8,0.116935,-0.06401,00111100,6,7,12.5
IF000192,66568,2006/09/12 07:00:16,46.7545,-2.7979,19.72,0.002145,-0.140872,00111100,6,3,12.5
IF000192,66568,2006/09/12 08:00:23,46.7497,-2.8005,19.72,-0.054916,-0.147972,00111100,8,6,12.5
IF000192,66568,2006/09/12 09:00:35,46.7444,-2.8086,19.8,-0.170865,-0.16316,00111100,7,19,12.5
IF000192,66568,2006/09/12 10:00:16,46.7412,-2.8216,19.88,-0.276623,-0.099364,00111100,6,44,12.5
IF000192,66568,2006/09/12 11:00:11,46.7407,-2.8337,20.28,-0.256478,-0.015465,00111100,10,76,12.5
IF000192,66568,2006/09/12 12:00:35,46.7429,-2.8424,20.52,-0.182932,0.067502,00111100,8,92,12.5
IF000192,66568,2006/09/12 13:00:16,46.7471,-2.8458,20.6,-0.072345,0.130416,00111100,6,87,12.5
IF000192,66568,2006/09/12 14:00:16,46.7539,-2.8406,20.68,0.11005,0.210035,00111100,7,95,12.5
IF000192,66568,2006/09/12 15:00:40,46.7616,-2.8299,20.6,0.224918,0.236259,00111100,6,95,12.5
IF000192,66568,2006/09/12 16:00:16,46.7674,-2.8169,20.6,0.276898,0.18035,00111100,5,93,12.5
IF000192,66568,2006/09/12 17:00:16,46.7693,-2.8064,20.36,0.222142,0.058686,00111100,8,76,12.5
IF000192,66568,2006/09/12 18:00:41,46.7680,-2.8007,20.36,0.119759,-0.039877,00111100,5,74,12.5
IF000192,66568,2006/09/12 19:00:16,46.7652,-2.7979,20.28,0.059654,-0.08709,00111100,1,76,12.5
IF000192,66568,2006/09/12 20:01:10,46.7609,-2.7991,20.44,-0.025015,-0.130853,00111100,5,49,12.5
IF000192,66568,2006/09/12 21:00:16,46.7565,-2.8054,20.36,-0.135339,-0.137975,00111100,1,19,12.5
IF000192,66568,2006/09/12 22:00:16,46.7528,-2.8160,20.28,-0.224315,-0.114284,00111100,5,15,12.5
IF000192,66568,2006/09/12 23:00:17,46.7511,-2.8299,20.28,-0.294081,-0.052494,00111100,7,14,12.5
IF000192,66568,2006/09/13 00:00:40,46.7520,-2.8402,19.96,-0.216595,0.027622,00111100,5,61,12.5
IF000192,66568,2006/09/13 01:00:16,46.7553,-2.8459,20.28,-0.121434,0.102613,00111100,7,82,12.4
IF000192,66568,2006/09/13 02:00:16,46.7617,-2.8441,20.28,0.038088,0.19768,00111100,6,90,12.5
IF000192,66568,2006/09/13 03:01:04,46.7696,-2.8342,20.2,0.206703,0.2408,00111100,8,92,12.5
IF000192,66568,2006/09/13 04:00:16,46.7762,-2.8219,19.88,0.263718,0.206612,00111100,5,95,12.5
IF000192,66568,2006/09/13 05:00:16,46.7800,-2.8116,19.88,0.217871,0.117372,00111100,7,100,12.5
IF000192,66568,2006/09/13 06:00:40,46.7795,-2.8054,19.96,0.130273,-0.015341,00111100,5,100,12.5
IF000192,66568,2006/09/13 07:00:16,46.7768,-2.8025,19.88,0.061754,-0.083956,00111100,6,100,12.5
IF000192,66568,2006/09/13 08:00:17,46.7735,-2.8018,19.96,0.014803,-0.1019,00111100,4,96,12.5
IF000192,66568,2006/09/13 09:00:40,46.7688,-2.8054,20.04,-0.075675,-0.14425,00111100,7,76,12.5
IF000192,66568,2006/09/13 10:00:16,46.7639,-2.8142,20.04,-0.187433,-0.152364,00111100,6,30,12.5
IF000192,66568,2006/09/13 11:00:23,46.7591,-2.8286,20.04,-0.304099,-0.147972,00111100,6,7,12.4
IF000192,66568,2006/09/13 12:00:35,46.7592,-2.8425,20.04,-0.293147,0.003078,00111100,10,25,12.4
IF000192,66568,2006/09/13 13:00:16,46.7623,-2.8526,19.96,-0.214843,0.096259,00111100,6,28,12.4
IF000192,66568,2006/09/13 14:00:16,46.7680,-2.8568,19.88,-0.088862,0.176059,00111100,6,34,12.4
IF000192,66568,2006/09/13 15:00:17,46.7754,-2.8534,19.88,0.071907,0.228504,00111100,6,46,12.4
IF000192,66568,2006/09/13 16:00:40,46.7827,-2.8449,19.88,0.178652,0.224047,00111100,7,71,12.4
IF000192,66568,2006/09/13 17:00:13,46.7875,-2.8365,19.88,0.179001,0.14938,00111100,1,85,12.4
IF000192,66568,2006/09/13 18:00:22,46.7892,-2.8302,19.96,0.132903,0.052378,00111100,3,85,12.4
IF000192,66568,2006/09/13 19:01:09,46.7880,-2.8266,19.96,0.075153,-0.036587,00111100,4,96,12.4
IF000192,66568,2006/09/13 20:00:16,46.7863,-2.8260,19.88,0.012879,-0.053293,00111100,6,98,12.4
IF000192,66568,2006/09/13 21:00:22,46.7824,-2.8297,19.88,-0.078125,-0.120261,00111100,1,98,12.4
IF000192,66568,2006/09/13 22:00:39,46.7779,-2.8376,19.88,-0.166313,-0.13834,00111100,5,98,12.4
IF000192,66568,2006/09/13 23:00:17,46.7724,-2.8506,19.88,-0.276689,-0.170926,00111100,3,74,12.4
IF000192,66568,2006/09/14 01:01:00,46.7717,-2.8795,19.8,-0.303874,-0.010746,00111100,8,88,12.4
IF000192,66568,2006/09/14 02:01:04,46.7758,-2.8867,19.72,-0.152142,0.126498,00111100,5,92,12.4
IF000192,66568,2006/09/14 03:00:16,46.7811,-2.8867,19.72,0,0.165916,00111100,5,98,12.4
IF000192,66568,2006/09/14 04:00:16,46.7879,-2.8818,19.64,0.103635,0.210035,00111100,5,100,12.4
IF000192,66568,2006/09/14 05:00:23,46.7932,-2.8747,19.56,0.149857,0.163386,00111100,5,100,12.4
IF000192,66568,2006/09/14 06:01:58,46.7960,-2.8702,19.56,0.092711,0.084261,00111100,1,100,12.4
IF000192,66568,2006/09/14 07:00:11,46.7968,-2.8695,19.56,0.015255,0.025467,00111100,1,100,12.4
IF000192,66568,2006/09/14 08:00:17,46.7959,-2.8703,19.56,-0.016888,-0.027752,00111100,5,100,12.4
IF000192,66568,2006/09/14 09:01:10,46.7943,-2.8738,19.64,-0.072937,-0.048703,00111100,4,100,12.4
IF000192,66568,2006/09/14 10:00:10,46.7931,-2.8793,19.64,-0.118277,-0.037693,00111100,5,100,12.4
IF000192,66568,2006/09/14 11:00:34,46.7919,-2.8864,19.64,-0.149149,-0.03682,00111100,5,100,12.4
IF000192,66568,2006/09/14 12:02:28,46.7905,-2.8984,19.64,-0.245979,-0.041915,00111100,7,98,12.4
IF000192,66568,2006/09/14 13:00:22,46.7901,-2.9111,19.56,-0.278317,-0.012803,00111100,6,100,12.4
IF000192,66568,2006/09/14 14:01:40,46.7925,-2.9221,19.48,-0.227688,0.072558,00111100,6,100,12.4
IF000192,66568,2006/09/14 15:00:41,46.7968,-2.9279,19.32,-0.124691,0.135029,00111100,5,100,12.4
IF000192,66568,2006/09/14 16:01:05,46.8039,-2.9276,19.16,0.006301,0.217849,00111100,4,100,12.4
IF000192,66568,2006/09/14 17:01:58,46.8125,-2.9242,19.08,0.070836,0.261778,00111100,1,100,12.4
IF000192,66568,2006/09/14 18:00:11,46.8180,-2.9179,18.92,0.137248,0.175085,00111100,4,100,12.4
IF000192,66568,2006/09/14 19:00:11,46.8204,-2.9125,18.84,0.114136,0.07413,00111100,1,100,12.4
IF000192,66568,2006/09/14 20:02:04,46.8183,-2.9083,18.68,0.086071,-0.06289,00111100,4,100,12.4
IF000192,66568,2006/09/14 21:00:22,46.8146,-2.9064,18.6,0.041332,-0.117616,00111100,3,100,12.4
IF000192,66568,2006/09/14 22:00:13,46.8092,-2.9053,18.6,0.023311,-0.16721,00111100,5,100,12.4
IF000192,66568,2006/09/14 23:02:40,46.8038,-2.9072,18.68,-0.038593,-0.160249,00111100,7,100,12.4
IF000192,66568,2006/09/15 00:00:16,46.8000,-2.9129,18.76,-0.125538,-0.122263,00111100,5,100,12.4
IF000192,66568,2006/09/15 01:00:16,46.7982,-2.9212,18.76,-0.175498,-0.055597,00111100,5,100,12.4
IF000192,66568,2006/09/15 02:02:17,46.7986,-2.9294,18.76,-0.167747,0.011953,00111100,4,100,12.4
IF000192,66568,2006/09/15 03:00:40,46.8009,-2.9357,18.76,-0.136896,0.073008,00111100,4,100,12.4
IF000192,66568,2006/09/15 04:00:22,46.8058,-2.9359,18.76,-0.00425,0.152109,00111100,8,100,12.4
IF000192,66568,2006/09/15 05:00:16,46.8127,-2.9325,18.68,0.071997,0.213479,00111100,4,100,12.4
IF000192,66568,2006/09/15 06:01:09,46.8186,-2.9268,18.68,0.118737,0.179592,00111100,4,100,12.4
IF000192,66568,2006/09/15 07:00:16,46.8211,-2.9201,18.6,0.143728,0.078373,00111100,3,100,12.4
IF000192,66568,2006/09/15 08:00:16,46.8200,-2.9156,18.6,0.095111,-0.033976,00111100,1,100,12.4
IF000192,66568,2006/09/15 09:01:41,46.8169,-2.9125,18.52,0.064012,-0.093543,00111100,3,100,12.4
IF000192,66568,2006/09/15 10:01:10,46.8130,-2.9104,18.6,0.044775,-0.121507,00111100,1,100,12.4
IF000192,66568,2006/09/15 11:00:22,46.8083,-2.9095,18.6,0.019283,-0.147133,00111100,1,100,12.4
IF000192,66568,2006/09/15 12:00:28,46.8038,-2.9111,18.6,-0.03377,-0.138762,00111100,4,100,12.4
IF000192,66568,2006/09/15 13:00:16,46.8001,-2.9162,18.6,-0.108191,-0.114666,00111100,8,100,12.4
IF000192,66568,2006/09/15 14:02:10,46.7974,-2.9239,18.6,-0.157815,-0.080836,00111100,5,100,12.4
IF000192,66568,2006/09/15 15:00:21,46.7974,-2.9308,18.6,-0.150456,0,00111100,4,100,12.4
IF000192,66568,2006/09/15 16:00:28,46.7994,-2.9334,18.6,-0.054869,0.061655,00111100,1,100,12.4
IF000192,66568,2006/09/15 17:00:23,46.8027,-2.9309,18.6,0.052932,0.10207,00111100,8,100,12.4
IF000192,66568,2006/09/15 18:01:58,46.8066,-2.9242,18.6,0.13801,0.117364,00111100,1,100,12.4
IF000192,66568,2006/09/15 19:00:16,46.8090,-2.9164,18.68,0.169707,0.076292,00111100,1,100,12.4
IF000192,66568,2006/09/15 20:00:16,46.8093,-2.9077,18.68,0.183921,0.009266,00111100,1,100,12.4
IF000192,66568,2006/09/15 21:00:16,46.8068,-2.8995,18.84,0.173354,-0.077219,00111100,1,100,12.4
IF000192,66568,2006/09/15 22:00:40,46.8029,-2.8917,18.84,0.163816,-0.119663,00111100,1,100,12.4
IF000192,66568,2006/09/15 23:00:39,46.7976,-2.8869,18.76,0.101519,-0.163749,00111100,4,100,12.4
IF000192,66568,2006/09/16 00:00:22,46.7923,-2.8849,18.76,0.042492,-0.16448,00111100,1,100,12.4
IF000192,66568,2006/09/16 01:00:15,46.7880,-2.8862,18.68,-0.027546,-0.133075,00111100,4,100,12.4
IF000192,66568,2006/09/16 02:01:09,46.7839,-2.8899,18.6,-0.077097,-0.124767,00111100,7,100,12.4
IF000192,66568,2006/09/16 03:00:16,46.7807,-2.8937,18.6,-0.081574,-0.100317,00111100,8,100,12.4
IF000192,66568,2006/09/16 04:00:17,46.7800,-2.8956,18.6,-0.040177,-0.021615,00111100,7,100,12.4
IF000192,66568,2006/09/16 05:00:17,46.7808,-2.8938,18.6,0.038073,0.02471,00111100,7,100,12.4
IF000192,66568,2006/09/16 06:01:04,46.7825,-2.8878,18.84,0.125271,0.051832,00111100,1,100,12.4
IF000192,66568,2006/09/16 07:01:28,46.7838,-2.8781,18.84,0.203802,0.039888,00111100,4,100,12.4
IF000192,66568,2006/09/16 08:00:10,46.7835,-2.8677,18.84,0.224835,-0.009471,00111100,3,100,12.4
IF000192,66568,2006/09/16 09:01:06,46.7811,-2.8556,18.84,0.252006,-0.072994,00111100,3,100,12.4
IF000192,66568,2006/09/16 10:00:10,46.7778,-2.8431,18.76,0.268578,-0.103539,00111100,1,100,12.4
IF000192,66568,2006/09/16 11:00:22,46.7733,-2.8308,18.76,0.259324,-0.138532,00111100,1,100,12.4
IF000192,66568,2006/09/16 12:01:40,46.7675,-2.8208,18.76,0.207069,-0.175348,00111100,6,100,12.4
IF000192,66568,2006/09/16 13:00:09,46.7624,-2.8140,18.68,0.147603,-0.161611,00111100,1,100,12.4
IF000192,66568,2006/09/16 14:00:28,46.7569,-2.8107,18.68,0.069461,-0.168989,00111100,1,100,12.4
IF000192,66568,2006/09/16 15:00:37,46.7522,-2.8097,18.68,0.021109,-0.144809,00111100,8,100,12.4
IF000192,66568,2006/09/16 16:01:10,46.7483,-2.8096,18.68,0.002097,-0.119367,00111100,4,100,12.4
IF000192,66568,2006/09/16 17:00:34,46.7468,-2.8085,18.68,0.023516,-0.046799,00111100,4,100,12.4
IF000192,66568,2006/09/16 18:00:16,46.7481,-2.8037,18.68,0.1021,0.040356,00111100,8,100,12.4
IF000192,66568,2006/09/16 19:00:16,46.7509,-2.7946,18.68,0.19259,0.086485,00111100,5,100,12.4
IF000192,66568,2006/09/16 20:00:57,46.7528,-2.7830,18.68,0.242725,0.058025,00111100,1,100,12.4
IF000192,66568,2006/09/16 21:00:16,46.7528,-2.7716,18.6,0.244031,0,00111100,3,100,12.3
IF000192,66568,2006/09/16 22:00:10,46.7518,-2.7615,18.44,0.2141,-0.030939,00111100,1,100,12.4
IF000192,66568,2006/09/16 23:00:40,46.7501,-2.7525,18.44,0.188895,-0.052075,00111100,1,100,12.4
IF000192,66568,2006/09/17 00:00:16,46.7483,-2.7444,18.36,0.172578,-0.055971,00111100,1,100,12.4
IF000192,66568,2006/09/17 01:01:04,46.7453,-2.7380,18.28,0.133673,-0.091443,00111100,6,100,12.4
IF000192,66568,2006/09/17 02:00:16,46.7421,-2.7338,18.28,0.090099,-0.100176,00111100,5,100,12.4
IF000192,66568,2006/09/17 03:00:23,46.7383,-2.7327,18.28,0.023239,-0.117145,00111100,6,100,12.4
IF000192,66568,2006/09/17 04:00:40,46.7348,-2.7335,18.28,-0.016855,-0.107598,00111100,9,100,12.4
IF000192,66568,2006/09/17 05:00:10,46.7329,-2.7341,18.28,-0.012809,-0.059179,00111100,6,100,12.4
IF000192,66568,2006/09/17 06:00:10,46.7329,-2.7332,18.28,0.019053,0,00111100,4,88,12.4
IF000192,66568,2006/09/17 07:00:10,46.7348,-2.7298,18.44,0.071978,0.058686,00111100,3,100,12.4
IF000192,66568,2006/09/17 08:00:40,46.7374,-2.7247,18.6,0.10707,0.079644,00111100,1,98,12.4
IF000192,66568,2006/09/17 09:00:16,46.7395,-2.7189,18.68,0.123599,0.065299,00111100,1,100,12.4
IF000192,66568,2006/09/17 10:00:22,46.7405,-2.7128,18.68,0.128907,0.030836,00111100,1,100,12.4
IF000192,66568,2006/09/17 11:01:03,46.7403,-2.7068,18.76,0.125574,-0.006108,00111100,1,100,12.4
IF000192,66568,2006/09/17 12:00:11,46.7393,-2.7018,18.76,0.107389,-0.03134,00111100,7,100,12.4
IF000192,66568,2006/09/17 13:00:16,46.7377,-2.6981,18.84,0.078213,-0.049351,00111100,6,100,12.4
IF000192,66568,2006/09/17 14:00:40,46.7352,-2.6961,18.92,0.042057,-0.076707,00111100,7,100,12.4
IF000192,66568,2006/09/17 15:00:10,46.7317,-2.6979,19,-0.038426,-0.109015,00111100,4,100,12.4
IF000192,66568,2006/09/17 16:00:22,46.7277,-2.7024,19,-0.094955,-0.123139,00111100,5,100,12.4
IF000192,66568,2006/09/17 17:01:05,46.7256,-2.7082,19,-0.121352,-0.064098,00111100,1,100,12.4
IF000192,66568,2006/09/17 18:00:10,46.7246,-2.7139,19,-0.122561,-0.031367,00111100,3,98,12.4
IF000192,66568,2006/09/17 19:00:17,46.7254,-2.7178,18.92,-0.082416,0.024662,00111100,3,100,12.4
IF000192,66568,2006/09/17 20:01:04,46.7279,-2.7186,18.84,-0.01672,0.076224,00111100,1,100,12.3
IF000192,66568,2006/09/17 21:00:10,46.7308,-2.7178,18.84,0.017195,0.090938,00111100,1,100,12.4
IF000192,66568,2006/09/17 22:00:10,46.7337,-2.7144,18.84,0.07198,0.089574,00111100,1,100,12.4
IF000192,66568,2006/09/17 23:00:10,46.7355,-2.7096,18.76,0.101614,0.055597,00111100,3,100,12.4
IF000192,66568,2006/09/18 00:01:04,46.7354,-2.7045,18.68,0.106368,-0.003043,00111100,1,100,12.4
IF000192,66568,2006/09/18 01:00:22,46.7334,-2.7007,18.68,0.081394,-0.062504,00111100,1,100,12.4
IF000192,66568,2006/09/18 02:00:10,46.7302,-2.6996,18.68,0.023366,-0.099171,00111100,5,100,12.4
IF000192,66568,2006/09/18 03:00:17,46.7263,-2.7010,18.6,-0.029583,-0.120227,00111100,5,100,12.3
IF000192,66568,2006/09/18 04:00:39,46.7214,-2.7055,18.6,-0.094704,-0.150429,00111100,7,100,12.4
IF000192,66568,2006/09/18 05:00:10,46.7175,-2.7121,18.6,-0.140894,-0.121439,00111100,4,100,12.3
IF000192,66568,2006/09/18 06:00:10,46.7153,-2.7197,18.68,-0.160943,-0.067952,00111100,4,100,12.3